TimePST,TemperatureF,Dew PointF,Humidity,Sea Level PressureIn,VisibilityMPH,Wind Direction,Wind SpeedMPH,Gust SpeedMPH,PrecipitationIn,Events,Conditions,WindDirDegrees,DateUTC
12:15 AM,44.6,42.8,93,30.33,10.0,South,5.8,-,N/A,,Overcast,180,2013-11-30 08:15:00
12:35 AM,44.6,42.8,93,30.32,10.0,South,8.1,-,N/A,,Overcast,170,2013-11-30 08:35:00
12:55 AM,44.6,42.8,93,30.33,10.0,South,9.2,-,N/A,,Overcast,180,2013-11-30 08:55:00
1:15 AM,44.6,42.8,93,30.32,10.0,South,11.5,-,N/A,,Overcast,190,2013-11-30 09:15:00
1:35 AM,44.6,41.0,87,30.33,10.0,South,4.6,-,N/A,,Overcast,190,2013-11-30 09:35:00
1:55 AM,44.6,41.0,87,30.33,10.0,South,9.2,-,N/A,,Overcast,180,2013-11-30 09:55:00
2:15 AM,44.6,41.0,87,30.33,10.0,South,8.1,-,N/A,,Overcast,180,2013-11-30 10:15:00
2:35 AM,44.6,41.0,87,30.34,10.0,South,9.2,-,N/A,,Overcast,180,2013-11-30 10:35:00
2:55 AM,44.6,42.8,93,30.33,10.0,South,11.5,-,N/A,,Overcast,190,2013-11-30 10:55:00
3:15 AM,44.6,41.0,87,30.33,10.0,South,9.2,17.3,N/A,,Overcast,180,2013-11-30 11:15:00
3:35 AM,44.6,41.0,87,30.34,10.0,South,11.5,-,N/A,,Overcast,190,2013-11-30 11:35:00
3:55 AM,44.6,41.0,87,30.33,10.0,South,11.5,17.3,N/A,,Overcast,190,2013-11-30 11:55:00
4:15 AM,44.6,41.0,87,30.33,10.0,South,9.2,-,N/A,,Overcast,180,2013-11-30 12:15:00
4:35 AM,44.6,41.0,87,30.33,10.0,South,8.1,-,N/A,,Overcast,190,2013-11-30 12:35:00
4:55 AM,44.6,41.0,87,30.32,10.0,South,9.2,-,N/A,,Overcast,180,2013-11-30 12:55:00
5:15 AM,44.6,41.0,87,30.33,10.0,South,10.4,-,N/A,,Overcast,190,2013-11-30 13:15:00
5:35 AM,44.6,41.0,87,30.32,10.0,South,11.5,16.1,N/A,,Overcast,190,2013-11-30 13:35:00
5:55 AM,44.6,41.0,87,30.32,10.0,South,9.2,18.4,N/A,,Overcast,180,2013-11-30 13:55:00
6:15 AM,44.6,41.0,87,30.32,10.0,South,9.2,-,N/A,,Overcast,180,2013-11-30 14:15:00
6:35 AM,44.6,41.0,87,30.32,10.0,South,10.4,-,N/A,,Overcast,170,2013-11-30 14:35:00
6:55 AM,44.6,41.0,87,30.33,10.0,South,9.2,-,N/A,,Overcast,190,2013-11-30 14:55:00
7:15 AM,44.6,41.0,87,30.32,10.0,South,10.4,18.4,N/A,,Overcast,180,2013-11-30 15:15:00
7:35 AM,44.6,41.0,87,30.32,10.0,South,8.1,-,N/A,,Overcast,170,2013-11-30 15:35:00
7:55 AM,44.6,41.0,87,30.33,10.0,South,10.4,-,N/A,,Overcast,190,2013-11-30 15:55:00
8:15 AM,44.6,41.0,87,30.32,10.0,South,12.7,-,N/A,,Overcast,190,2013-11-30 16:15:00
8:35 AM,44.6,41.0,87,30.32,10.0,South,11.5,19.6,N/A,,Overcast,180,2013-11-30 16:35:00
8:55 AM,44.6,41.0,87,30.32,10.0,South,10.4,-,N/A,,Overcast,180,2013-11-30 16:55:00
9:15 AM,44.6,41.0,87,30.32,10.0,South,11.5,20.7,N/A,,Overcast,170,2013-11-30 17:15:00
9:35 AM,46.4,41.0,81,30.33,10.0,South,11.5,-,N/A,,Overcast,180,2013-11-30 17:35:00
9:55 AM,46.4,41.0,81,30.32,10.0,South,11.5,18.4,N/A,,Overcast,180,2013-11-30 17:55:00
10:15 AM,46.4,42.8,87,30.32,10.0,South,13.8,-,N/A,,Overcast,180,2013-11-30 18:15:00
10:35 AM,46.4,42.8,87,30.33,10.0,South,13.8,20.7,N/A,,Overcast,180,2013-11-30 18:35:00
10:55 AM,46.4,41.0,81,30.32,10.0,South,16.1,19.6,N/A,,Overcast,190,2013-11-30 18:55:00
11:15 AM,46.4,41.0,81,30.31,10.0,South,15.0,20.7,N/A,,Overcast,180,2013-11-30 19:15:00
11:35 AM,46.4,41.0,81,30.32,10.0,South,15.0,20.7,N/A,,Overcast,190,2013-11-30 19:35:00
11:55 AM,46.4,42.8,87,30.32,10.0,South,12.7,-,N/A,,Overcast,190,2013-11-30 19:55:00
12:15 PM,46.4,42.8,87,30.31,10.0,South,16.1,20.7,N/A,,Overcast,190,2013-11-30 20:15:00
12:35 PM,46.4,42.8,87,30.30,10.0,South,15.0,-,N/A,,Overcast,190,2013-11-30 20:35:00
12:55 PM,46.4,42.8,87,30.30,7.0,South,16.1,19.6,N/A,,Overcast,190,2013-11-30 20:55:00
1:15 PM,46.4,42.8,87,30.29,4.0,South,17.3,-,N/A,,Overcast,180,2013-11-30 21:15:00
1:35 PM,46.4,42.8,87,30.28,7.0,South,17.3,21.9,N/A,,Overcast,190,2013-11-30 21:35:00
1:55 PM,46.4,42.8,87,30.29,7.0,South,15.0,20.7,N/A,,Overcast,190,2013-11-30 21:55:00
2:15 PM,46.4,42.8,87,30.28,3.0,South,17.3,-,N/A,,Overcast,180,2013-11-30 22:15:00
2:35 PM,46.4,42.8,87,30.27,3.0,South,13.8,21.9,N/A,,Overcast,180,2013-11-30 22:35:00
2:55 PM,46.4,42.8,87,30.27,4.0,South,16.1,20.7,N/A,,Overcast,180,2013-11-30 22:55:00
3:15 PM,46.4,42.8,87,30.27,7.0,South,15.0,18.4,N/A,,Overcast,180,2013-11-30 23:15:00
3:35 PM,46.4,42.8,87,30.26,5.0,South,12.7,-,N/A,,Overcast,180,2013-11-30 23:35:00
3:55 PM,46.4,42.8,87,30.26,4.0,South,12.7,-,N/A,,Overcast,190,2013-11-30 23:55:00
4:15 PM,46.4,42.8,87,30.26,4.0,South,12.7,17.3,N/A,,Overcast,180,2013-12-01 00:15:00
4:35 PM,46.4,42.8,87,30.26,6.0,South,13.8,20.7,N/A,,Overcast,180,2013-12-01 00:35:00
4:55 PM,46.4,42.8,87,30.26,7.0,South,11.5,-,N/A,,Overcast,180,2013-12-01 00:55:00
5:15 PM,46.4,44.6,93,30.27,10.0,South,11.5,-,N/A,,Overcast,170,2013-12-01 01:15:00
5:35 PM,46.4,44.6,93,30.25,10.0,South,10.4,-,N/A,,Overcast,180,2013-12-01 01:35:00
5:55 PM,46.4,44.6,93,30.25,3.0,South,13.8,18.4,N/A,,Overcast,190,2013-12-01 01:55:00
6:15 PM,46.4,44.6,93,30.25,5.0,South,11.5,-,N/A,,Overcast,180,2013-12-01 02:15:00
6:35 PM,46.4,44.6,93,30.23,5.0,South,12.7,-,N/A,,Overcast,180,2013-12-01 02:35:00
6:55 PM,46.4,44.6,93,30.23,5.0,South,11.5,18.4,N/A,,Overcast,180,2013-12-01 02:55:00
7:15 PM,46.4,44.6,93,30.23,4.0,South,9.2,-,N/A,,Overcast,180,2013-12-01 03:15:00
7:35 PM,46.4,44.6,93,30.21,3.0,South,11.5,-,N/A,,Overcast,180,2013-12-01 03:35:00
7:55 PM,46.4,44.6,93,30.22,2.0,South,12.7,-,N/A,,Overcast,180,2013-12-01 03:55:00
8:15 PM,46.4,44.6,93,30.22,2.0,South,9.2,-,N/A,,Overcast,180,2013-12-01 04:15:00
8:35 PM,46.4,44.6,93,30.20,4.0,South,6.9,-,N/A,,Overcast,170,2013-12-01 04:35:00
8:55 PM,46.4,44.6,93,30.20,3.0,South,8.1,-,N/A,,Overcast,180,2013-12-01 04:55:00
9:15 PM,46.4,44.6,93,30.20,3.0,South,12.7,-,N/A,,Overcast,180,2013-12-01 05:15:00
9:35 PM,46.4,44.6,93,30.19,5.0,South,9.2,-,N/A,,Overcast,180,2013-12-01 05:35:00
9:55 PM,46.4,44.6,93,30.18,5.0,South,10.4,-,N/A,,Overcast,180,2013-12-01 05:55:00
10:15 PM,46.4,44.6,93,30.17,6.0,South,9.2,-,N/A,,Overcast,180,2013-12-01 06:15:00
10:35 PM,46.4,44.6,93,30.15,6.0,South,8.1,-,N/A,,Overcast,190,2013-12-01 06:35:00
10:55 PM,46.4,44.6,93,30.15,5.0,South,10.4,16.1,N/A,,Overcast,190,2013-12-01 06:55:00
11:15 PM,46.4,44.6,93,30.14,4.0,South,11.5,-,N/A,,Overcast,190,2013-12-01 07:15:00
11:35 PM,46.4,44.6,93,30.12,4.0,South,12.7,17.3,N/A,,Overcast,180,2013-12-01 07:35:00
11:55 PM,46.4,42.8,87,30.12,5.0,South,12.7,-,N/A,,Overcast,180,2013-12-01 07:55:00